Hourly Weather Roundup
Issued by NWS Central Illinois

Home | Current Version | Previous Version | Text Only | Print | Product List | Glossary On
Versions: 1 2 3 4 5 6 7 8 9 10 11 12 13 14 15 16 17 18 19 20 21 22 23 24 25 26 27 28 29 30 31 32 33 34 35 36 37 38 39 40 41 42 43 44 45 46 47 48 49 50
000
NZUS43 KILX 282110
HWRILX

AREA WEATHER ROUNDUP
NATIONAL WEATHER SERVICE, LINCOLN IL
400 PM CDT THU MAY 28 2015


CITY           SKY/WX    TMP DP  RH WIND       PRES   REMARKS
BLOOMINGTON    MOSUNNY   84  56  38 S13       30.12F HX  83
CHAMPAIGN      MOSUNNY   85  54  34 E12       30.11F HX  83
DANVILLE       MOSUNNY   84  51  32 CALM      30.10F HX  82
DECATUR        SUNNY     84  56  38 W7        30.10F HX  83
EFFINGHAM      MOSUNNY   85  58  40 E7        30.11F HX  84
FLORA          MOSUNNY   83  65  54 SE10      30.11F HX  84
GALESBURG      SUNNY     81  53  38 SE7G16    30.09F HX  80
JACKSONVILLE   MOSUNNY   85  62  45 SE9       30.07F HX  86
LACON          PTSUNNY   83  50  31 SE12      30.09F HX  81
LAWRENCEVILLE  MOSUNNY   84  63  49 SE12      30.11F HX  85
LITCHFIELD     MOSUNNY   81  65  57 S13       30.08F HX  82
$$


CITY           SKY/WX    TMP DP  RH WIND       PRES   REMARKS
LINCOLN        MOSUNNY   85  53  33 S6G17     30.06F HX  83
MACOMB         SUNNY     82  55  39 SE12      30.10F HX  81
MATTOON        NOT AVBL
MT CARMEL AP   MOSUNNY   88  54  31 S10       30.11F HX  86
OLNEY-NOBLE AP CLOUDY    77  66  69 N7        30.11F THUNDER
PARIS          SUNNY     86  55  35 S9        30.12F HX  84
PEORIA         MOSUNNY   85  54  34 S9        30.09F HX  83
PONTIAC        MOSUNNY   86  49  28 SE14      30.12F HX  83
RANTOUL        MOSUNNY   86  48  26 SE14      30.12F HX  83
ROBINSON       MOSUNNY   86  60  41 S8        30.12F HX  86
SPRINGFIELD    MOSUNNY   86  61  42 VRB6      30.08F HX  86
TAYLORVILLE    MOSUNNY   81  63  54 S6        30.08F HX  82
$$

...REGIONAL REPORTS...


CITY           SKY/WX    TMP DP  RH WIND       PRES   REMARKS
CHICAGO O`HARE PTSUNNY   81  55  40 SE8       30.13F HX  81
KANKAKEE       MOSUNNY   83  56  39 SE14      30.13F HX  83
MOLINE         MOSUNNY   83  53  35 SE13G20   30.07F HX  82
MOUNT VERNON   PTSUNNY   84  66  54 SW9       30.11F HX  86
PITTSFIELD     CLOUDY    81  64  55 SE6       30.09R HX  82
QUINCY         PTSUNNY   79  62  56 SE9       30.07F HX  80
ROCKFORD       PTSUNNY   81  55  40 S12       30.14F HX  81
$$


CITY           SKY/WX    TMP DP  RH WIND       PRES   REMARKS
BURLINGTON     MOSUNNY   81  55  40 SE9       30.07F HX  81
CEDAR RAPIDS   PTSUNNY   80  54  40 S16G24    30.06F HX  80
DES MOINES     CLOUDY    73  62  68 S15       30.04F
KIRKSVILLE     PTSUNNY   77  66  68 SE15      30.03F
OTTUMWA        CLOUDY    76  60  57 S12       30.04F
ST LOUIS       LGT RAIN  73  66  78 W7        30.09F
$$


CITY           SKY/WX    TMP DP  RH WIND       PRES   REMARKS
TERRE HAUTE    SUNNY     86  61  42 S10       30.11F HX  86
EVANSVILLE     MOSUNNY   84  65  52 S5        30.12F HX  86
INDIANAPOLIS   MOSUNNY   83  58  42 S10G16    30.13F HX  83
LAFAYETTE      SUNNY     81  54  39 S9        30.12F HX  81
MADISON        PTSUNNY   82  54  37 S16       30.11F HX  81
MILWAUKEE      PTSUNNY   76  57  51 SE13      30.15F
$$





USA.gov is the U.S. government's official web portal to all federal, state and local government web resources and services.